Content
SEND FEEDBACK

Daily
Averages
Monthly
Summary
Canada

VANCOUVER, BRITISH COLUMBIA


Home > North America > Canada > British Columbia
Elevation: 7 feet     Latitude: 49 11N     Longitude: 123 10W

WEATHER
 
SELECT A DAY
Number of Records: 254,841;   Date Range: 5/15/97 - 12/17/14
 
SHARE

PRINT THIS DATA

[ ← Previous Day ]
WEATHER ALMANAC - MARCH 28, 2013
[ Next Day → ]
[ °C ]   °F
Weather ElementAverageHighLow
Temperature46.7 °F53.6 °F (3:15 pm)37.4 °F (6:55 am)
Dewpoint43.2 °F44.6 °F (12:35 am)37.4 °F (6:55 am)
Humidity88.1 %100 % (3:15 am)71 % (10:35 am)
Barometer30.06 in30.13 in (11:55 pm)29.99 in (12:35 am)
Wind Speed1.2 mph5.8 mph (10:55 am)
Weather ElementAverage
Visibility9.2 mi
Wind DirectionENE (56.6 °)

Weather ElementTotal
Precipitation---
Heating Degree Days19.5 (Base 65)
Averaged from 67 records on March 28, 2013
WEATHER CONDITIONS BREAKOUT
WIND DIRECTION BREAKOUT
WEATHER BY HOUR - MARCH 28, 2013
[ °C ]   °F
Local TimeTemperatureDewpointHumidityBarometerVisibilityWind DirectionWind SpeedGust SpeedPrecipitationEventsConditions
12:35 AM46.4 °F44.6 °F93 %29.99 in10.0 miCalmMostly Cloudy
12:55 AM46.4 °F44.6 °F93 %29.99 in10.0 miCalmMostly Cloudy
1:15 AM46.4 °F44.6 °F93 %30.00 in10.0 miCalmOvercast
1:35 AM46.4 °F42.8 °F87 %30.00 in10.0 miCalmMostly Cloudy
1:55 AM46.4 °F42.8 °F87 %29.99 in10.0 miCalmMostly Cloudy
2:15 AM44.6 °F42.8 °F93 %30.00 in10.0 miCalmPartly Cloudy
2:35 AM44.6 °F41.0 °F87 %30.00 in10.0 miCalmClear
3:15 AM41.0 °F41.0 °F100 %30.00 in10.0 miCalmClear
3:35 AM41.0 °F41.0 °F100 %30.00 in10.0 miNorthClear
3:55 AM41.0 °F41.0 °F100 %30.01 in10.0 miNorthClear
4:15 AM41.0 °F41.0 °F100 %30.01 in10.0 miCalmClear
4:35 AM41.0 °F39.2 °F93 %30.01 in10.0 miCalmClear
4:55 AM39.2 °F39.2 °F100 %30.01 in10.0 miCalmClear
5:15 AM41.0 °F39.2 °F93 %30.01 in10.0 miCalmClear
5:35 AM39.2 °F39.2 °F100 %30.02 in9.0 miCalmClear
5:55 AM39.2 °F39.2 °F100 %30.02 in9.0 miCalmClear
6:15 AM39.2 °F39.2 °F100 %30.02 in10.0 miCalmClear
6:35 AM39.2 °F39.2 °F100 %30.03 in9.0 miCalmClear
6:55 AM37.4 °F37.4 °F100 %30.03 in8.0 miCalmClear
7:15 AM39.2 °F39.2 °F100 %30.04 in7.0 miCalmClear
7:35 AM39.2 °F39.2 °F100 %30.04 in7.0 miCalmClear
7:55 AM39.2 °F39.2 °F100 %30.05 in7.0 miCalmClear
8:15 AM42.8 °F42.8 °F100 %30.05 in7.0 miCalmPartly Cloudy
8:35 AM44.6 °F44.6 °F100 %30.06 in9.0 miNorthPartly Cloudy
8:55 AM44.6 °F44.6 °F100 %30.06 in9.0 miNorthPartly Cloudy
9:15 AM46.4 °F44.6 °F93 %30.06 in9.0 miCalmPartly Cloudy
9:35 AM48.2 °F44.6 °F87 %30.06 in10.0 miCalmPartly Cloudy
9:55 AM50.0 °F42.8 °F76 %30.07 in10.0 miCalmPartly Cloudy
10:15 AM50.0 °F42.8 °F76 %30.07 in10.0 miCalmPartly Cloudy
10:35 AM51.8 °F42.8 °F71 %30.08 in10.0 miCalmClear
10:55 AM51.8 °F44.6 °F76 %30.08 in10.0 miNorth (350°)5.8 mphClear
11:15 AM48.2 °F44.6 °F87 %30.08 in10.0 miNorth (350°)5.8 mphClear
11:35 AM48.2 °F44.6 °F87 %30.09 in10.0 miNorth (360°)3.5 mphScattered Clouds
11:55 AM48.2 °F44.6 °F87 %30.09 in9.0 miCalmPartly Cloudy
12:15 PM48.2 °F44.6 °F87 %30.09 in10.0 miNorth (360°)4.6 mphClear
12:35 PM50.0 °F44.6 °F82 %30.09 in9.0 miCalmClear
12:55 PM50.0 °F44.6 °F82 %30.09 in10.0 miCalmPartly Cloudy
1:15 PM50.0 °F44.6 °F82 %30.09 in9.0 miNorth (360°)3.5 mphPartly Cloudy
1:35 PM50.0 °F44.6 °F82 %30.09 in8.0 miNorth (360°)3.5 mphClear
1:55 PM50.0 °F44.6 °F82 %30.09 in9.0 miNorth (10°)3.5 mphClear
2:15 PM51.8 °F44.6 °F76 %30.08 in9.0 miNorth (360°)4.6 mphClear
2:35 PM51.8 °F44.6 °F76 %30.08 in9.0 miNorth (10°)4.6 mphClear
2:55 PM51.8 °F44.6 °F76 %30.08 in9.0 miNorth (360°)3.5 mphClear
3:15 PM53.6 °F44.6 °F72 %30.07 in9.0 miNorth (360°)4.6 mphClear
3:35 PM53.6 °F44.6 °F72 %30.07 in10.0 miCalmClear
3:55 PM53.6 °F44.6 °F72 %30.07 in8.0 miNorthClear
4:15 PM53.6 °F44.6 °F72 %30.07 in10.0 miNorth (10°)4.6 mphClear
4:35 PM51.8 °F44.6 °F76 %30.07 in8.0 miNNE (20°)3.5 mphClear
4:55 PM51.8 °F44.6 °F76 %30.07 in9.0 miNorth (10°)4.6 mphClear
5:15 PM51.8 °F44.6 °F76 %30.07 in9.0 miNorth (360°)3.5 mphClear
5:35 PM51.8 °F44.6 °F76 %30.07 in8.0 miCalmClear
5:55 PM51.8 °F44.6 °F76 %30.07 in9.0 miCalmClear
6:15 PM51.8 °F44.6 °F76 %30.06 in9.0 miNorth (10°)3.5 mphClear
6:35 PM50.0 °F44.6 °F82 %30.07 in8.0 miCalmClear
6:55 PM50.0 °F44.6 °F82 %30.07 in9.0 miCalmClear
7:15 PM48.2 °F44.6 °F87 %30.07 in7.0 miCalmClear
7:35 PM48.2 °F44.6 °F87 %30.07 in8.0 miCalmClear
8:15 PM46.4 °F44.6 °F93 %30.08 in9.0 miCalmClear
8:35 PM46.4 °F44.6 °F93 %30.08 in8.0 miCalmClear
9:15 PM46.4 °F44.6 °F93 %30.09 in10.0 miCalmClear
9:35 PM46.4 °F44.6 °F93 %30.10 in10.0 miCalmClear
9:55 PM46.4 °F44.6 °F93 %30.10 in10.0 miCalmClear
10:15 PM46.4 °F44.6 °F93 %30.10 in10.0 miCalmClear
10:35 PM46.4 °F44.6 °F93 %30.11 in10.0 miCalmClear
10:55 PM46.4 °F44.6 °F93 %30.11 in10.0 miCalmClear
11:35 PM46.4 °F44.6 °F93 %30.12 in10.0 miSE (140°)5.8 mphClear
11:55 PM44.6 °F44.6 °F100 %30.13 in10.0 miCalmClear
Hourly data recorded from CZBB, located miles away from Vancouver, British Columbia







STORIES FROM OUR PARTNERS